Flag for Russia Weather past 2 weeks in Syktyvkar, Russia

Now
10 °F

Light snow. Mostly cloudy.


Feels Like: 1 °F
Forecast: 6 / 12 °F
Wind: 6 mph from West

Location: Syktyvkar Airport

Current Time: Dec 28, 2014 at 6:52:57 AM

Latest Report: Dec 28, 2014 at 6:00 AM


Visibility: 3 mi

Pressure: 30.04 "Hg

Humidity: 85%

Dew point: 7 °F

Location of SyktyvkarLocation

Historic Weather in Syktyvkar — Graph

°F

Syktyvkar temperature yesterday

Maximum temperature yesterday: 12 °F (at 10:00 PM)
Minimum temperature yesterday: 3 °F (at 12:00 AM)
Average temperature yesterday: 7 °F

Past Weeks' High & Low Weather Summary

 TemperatureHumidityPressure
High34 °F (Dec 14, 9:30 AM)100% (Dec 14, 9:00 AM)30.18 "Hg (Dec 14, 9:00 AM)
Low0 °F (Dec 26, 5:30 PM)75% (Dec 19, 9:00 AM)29.18 "Hg (Dec 21, 2:00 AM)
Average25 °F89%29.55 "Hg
* Reported Dec 13 5:00 AM — Dec 28 5:00 AM, Syktyvkar, Weather by CustomWeather, © 2014

Note: Actual official high and low records may vary slightly from our data, if they occured in-between our weather recording intervals... More about our weather records

Advertising

Syktyvkar weather history for previous 24 hours

 ConditionsComfort  
Time TempWeatherWind HumidityBarometerVisibility
5:00 AM
Dec 28
9 °FLight snow. Mostly cloudy.3 mph85%30.01 "Hg4 mi
4:30 AM9 °FLight snow. Mostly cloudy.3 mph85%30.01 "Hg4 mi
4:00 AM9 °FLight snow. Mostly cloudy.6 mph85%30.01 "Hg4 mi
3:30 AM9 °FLight snow. Mostly cloudy.6 mph85%30.01 "Hg4 mi
3:00 AM9 °FLight snow. Overcast.6 mph85%30.01 "Hg3 mi
2:30 AM9 °FLight snow. Overcast.6 mph85%30.01 "Hg4 mi
2:00 AM9 °FLight snow. Overcast.6 mph85%29.98 "Hg3 mi
1:30 AM9 °FLight snow. Low clouds.6 mph85%29.98 "Hg3 mi
1:00 AM9 °FLight snow. Overcast.6 mph92%29.98 "Hg2 mi
12:30 AM10 °FLight snow. Overcast.6 mph85%29.95 "Hg2 mi
12:00 AM10 °FLight snow. Overcast.8 mph85%29.95 "Hg3 mi
11:30 PM
Dec 27
10 °FLight snow. Overcast.8 mph85%29.95 "Hg2 mi
11:00 PM10 °FLight snow. Overcast.6 mph85%29.95 "Hg3 mi
10:30 PM10 °FLight snow. Overcast.6 mph85%29.92 "Hg2 mi
10:00 PM12 °FLight snow. Overcast.6 mph79%29.92 "Hg6 mi
9:30 PM10 °FLight snow. Overcast.3 mph79%29.92 "Hg3 mi
9:00 PM10 °FLight snow. Overcast.3 mph79%29.89 "Hg4 mi
8:30 PM9 °FLight snow. Overcast.3 mph85%29.89 "Hg4 mi
8:00 PM9 °FLight snow. Overcast.6 mph85%29.89 "Hg6 mi
7:30 PM9 °FLight snow. Overcast.6 mph78%29.86 "Hg6 mi
7:00 PM9 °FLight snow. Overcast.6 mph78%29.86 "Hg6 mi
6:30 PM9 °FLight snow. Overcast.6 mph78%29.86 "Hg4 mi
6:00 PM9 °FLight snow. Overcast.8 mph78%29.83 "Hg6 mi
5:30 PM9 °FLight snow. Overcast.8 mph78%29.83 "Hg5 mi
5:00 PM7 °FLight snow. Mostly cloudy.8 mph85%29.83 "Hg4 mi
4:30 PM7 °FLight snow. Mostly cloudy.10 mph85%29.80 "Hg4 mi
4:00 PM7 °FLight snow. Mostly cloudy.6 mph78%29.80 "Hg6 mi
3:30 PM5 °FLight snow. Mostly cloudy.6 mph85%29.77 "Hg6 mi
3:00 PM5 °FLight snow. More clouds than sun.6 mph85%29.77 "Hg6 mi
2:30 PM7 °FLight snow. More clouds than sun.6 mph78%29.77 "Hg4 mi
2:00 PM7 °FLight snow. More clouds than sun.6 mph78%29.77 "Hg5 mi
1:30 PM7 °FLight snow. More clouds than sun.3 mph78%29.74 "Hg4 mi
1:00 PM5 °FLight snow. More clouds than sun.3 mph85%29.74 "Hg6 mi
12:30 PM5 °FLight snow. More clouds than sun.3 mph78%29.74 "HgN/A
12:00 PM5 °FLight snow. More clouds than sun.6 mph85%29.71 "HgN/A
11:30 AM5 °FLight snow. Cloudy.6 mph85%29.71 "Hg4 mi
11:00 AM5 °FLight snow. Cloudy.6 mph85%29.71 "HgN/A
10:30 AM5 °FLight snow. Cloudy.8 mph85%29.68 "HgN/A
10:00 AM5 °FSunny.8 mph85%29.68 "Hg10 mi
9:30 AM7 °FSnow flurries. Overcast.8 mph78%29.65 "Hg5 mi
9:00 AM7 °FSnow flurries. Overcast.6 mph78%29.62 "Hg5 mi
8:30 AM7 °FSnow flurries. Overcast.6 mph85%29.62 "Hg4 mi
8:00 AM9 °FSnow flurries. Overcast.8 mph78%29.62 "Hg5 mi
7:30 AM9 °FSnow flurries. Overcast.8 mph85%29.59 "Hg1 mi
7:00 AM9 °FLight snow. Mostly cloudy.6 mph85%29.59 "Hg2 mi
6:00 AM9 °FLight snow. Mostly cloudy.6 mph85%29.56 "Hg3 mi
Weather by CustomWeather, © 2014

See weather overviewHow to use our weather pages